Ames, IA

4:36 PM CST on December 08, 2016 (GMT -0600)
Ames Municipal

Weather History for KAMW - April, 2012

Change the Weather History Date:

Tuesday, April 24, 2012

  Actual Average Record
Temperature  
Mean Temperature 63 °F 53 °F  
Max Temperature 83 °F 64 °F 83 °F (2012)
Min Temperature 43 °F 41 °F 26 °F (2013)
Degree Days  
Heating Degree Days 2 13  
Month to date heating degree days 287 400  
Since 1 July heating degree days 5219 6556  
Cooling Degree Days 0 0  
Month to date cooling degree days 4 0  
Year to date cooling degree days 19 0  
Growing Degree Days 12 (Base 50)    
Moisture  
Dew Point 47 °F    
Average Humidity 57    
Maximum Humidity 82    
Minimum Humidity 31    
Precipitation  
Precipitation 0.00 in 0.15 in 2.25 in (2007)
Month to date precipitation 2.54  
Sea Level Pressure  
Sea Level Pressure 29.67 in    
Wind  
Wind Speed 4 mph (SSW)    
Max Wind Speed 10 mph    
Max Gust Speed 13 mph    
Visibility 10 miles    
Events      
T = Trace of Precipitation, MM = Missing Value Source: NWS Daily Summary

Daily Weather History Graph

Daily Weather History Graph

Search for Another Location

Airport or City:

Trip Planner

Search our weather history database for the weather conditions in past years. The results will help you decide how hot, cold, wet, or windy it might be!

Date:

Astronomy

Apr. 24, 2012 Rise Set
Actual Time 6:19 AM CDT 8:06 PM CDT
Civil Twilight 5:49 AM CDT 8:36 PM CDT
Nautical Twilight 5:13 AM CDT 9:12 PM CDT
Astronomical Twilight 4:34 AM CDT 9:51 PM CDT
Moon 8:13 AM CDT (4/24) 11:29 PM CDT (4/24)
Length of Visible Light 14h 46m
Length of Day
13h 46m
Waxing Crescent, 10% of the Moon is Illuminated
Apr 24
Waxing Crescent
Apr 29
First Quarter
May 5
Full
May 12
Last Quarter
May 20
New

Hourly Weather History & Observations

Time (CDT) Temp. Windchill Dew Point Humidity Pressure Visibility Wind Dir Wind Speed Gust Speed Precip Events Conditions
12:53 AM 46.9 °F - 39.0 °F 74% 29.87 in 10.0 mi SW 6.9 mph - N/A   Clear
1:53 AM 46.0 °F 42.5 °F 37.9 °F 73% 29.85 in 10.0 mi WSW 6.9 mph - N/A   Clear
2:53 AM 46.9 °F - 37.9 °F 71% 29.84 in 10.0 mi WSW 9.2 mph - N/A   Clear
3:53 AM 45.0 °F 43.5 °F 37.9 °F 76% 29.84 in 10.0 mi SSW 3.5 mph - N/A   Clear
4:53 AM 43.0 °F 41.3 °F 37.9 °F 82% 29.81 in 10.0 mi SSE 3.5 mph - N/A   Overcast
5:53 AM 46.9 °F - 37.0 °F 68% 29.78 in 10.0 mi South 4.6 mph - N/A   Clear
7:53 AM 51.1 °F - 42.1 °F 71% 29.75 in 10.0 mi SSE 3.5 mph - N/A   Clear
8:53 AM 55.9 °F - 43.0 °F 62% 29.73 in 10.0 mi South 5.8 mph - N/A   Clear
9:53 AM 61.0 °F - 46.0 °F 58% 29.70 in 10.0 mi SW 9.2 mph - N/A   Clear
10:53 AM 66.0 °F - 48.0 °F 52% 29.68 in 10.0 mi Variable 4.6 mph - N/A   Clear
11:53 AM 70.0 °F - 48.9 °F 47% 29.67 in 10.0 mi SSE 3.5 mph - N/A   Clear
12:53 PM 73.0 °F - 48.9 °F 42% 29.65 in 10.0 mi South 5.8 mph - N/A   Clear
1:53 PM 75.0 °F - 51.1 °F 43% 29.62 in 10.0 mi South 5.8 mph - N/A   Clear
2:53 PM 78.1 °F - 50.0 °F 37% 29.60 in 10.0 mi SE 6.9 mph - N/A   Clear
3:53 PM 80.1 °F - 50.0 °F 35% 29.59 in 10.0 mi Calm Calm - N/A   Clear
4:53 PM 82.0 °F - 48.9 °F 31% 29.57 in 10.0 mi Calm Calm - N/A   Clear
5:53 PM 82.9 °F - 48.9 °F 31% 29.56 in 10.0 mi NW 3.5 mph - N/A   Clear
6:53 PM 78.1 °F - 53.1 °F 42% 29.55 in 10.0 mi SSW 5.8 mph - N/A   Clear
7:53 PM 75.0 °F - 52.0 °F 44% 29.55 in 10.0 mi SSW 4.6 mph - N/A   Clear
8:53 PM 66.9 °F - 55.0 °F 66% 29.56 in 10.0 mi Calm Calm - N/A   Clear
9:53 PM 64.9 °F - 53.1 °F 65% 29.56 in 10.0 mi Calm Calm - N/A   Clear
10:53 PM 61.0 °F - 54.0 °F 78% 29.57 in 10.0 mi Calm Calm - N/A   Clear
11:53 PM 57.9 °F - 52.0 °F 81% 29.57 in 10.0 mi Variable 3.5 mph - N/A   Clear